,,,PA_Meas_PMT16A,,PR_Meas_QMR101_102,,RH_Meas_QMH101,,SR_Meas_QMS101,,TA_Meas_QMH101,,GenWind,,GenWind,
date,time,status,PA,status,PR,status,RH,status,SR,status,TA,status,DirAvg,status,SpdAvg,
2009-11-11, 00:00:05,VALID,1001.5,VALID,0,VALID,93.9497,VALID,0,VALID,24.3849,VALID,356,VALID,0.454297,
2009-11-11, 00:01:05,VALID,1001.51,VALID,0,VALID,93.9039,VALID,0,VALID,24.3849,VALID,356,VALID,0.457422,
2009-11-11, 00:02:05,VALID,1001.54,VALID,0,VALID,93.8581,VALID,0,VALID,24.3654,VALID,356,VALID,0.486328,
2009-11-11, 00:03:04,VALID,1001.52,VALID,0,VALID,93.7818,VALID,0,VALID,24.3265,VALID,356,VALID,0.358984,
2009-11-11, 00:04:04,VALID,1001.53,VALID,0,VALID,93.7437,VALID,0,VALID,24.3265,VALID,356,VALID,0.194531,
2009-11-11, 00:05:04,VALID,1001.54,VALID,0,VALID,93.7284,VALID,0,VALID,24.307,VALID,356,VALID,0.335547,
2009-11-11, 00:06:04,VALID,1001.51,VALID,0,VALID,93.7513,VALID,0,VALID,24.2857,VALID,356,VALID,0.266406,
2009-11-11, 00:07:04,VALID,1001.48,VALID,0,VALID,93.7742,VALID,0,VALID,24.307,VALID,356,VALID,0.285937,
2009-11-11, 00:08:04,VALID,1001.48,VALID,0,VALID,93.7818,VALID,0,VALID,24.2681,VALID,356,VALID,0.405078,
2009-11-11, 00:09:04,VALID,1001.44,VALID,0,VALID,93.8123,VALID,0,VALID,24.2875,VALID,356,VALID,0.499609,
2009-11-11, 00:10:04,VALID,1001.4,VALID,0,VALID,93.8047,VALID,0,VALID,24.2875,VALID,356,VALID,0.345313,
2009-11-11, 00:11:04,VALID,1001.38,VALID,0,VALID,93.7666,VALID,0,VALID,24.2468,VALID,356,VALID,0.619922,
2009-11-11, 00:12:04,VALID,1001.31,VALID,0,VALID,93.7971,VALID,0,VALID,24.2486,VALID,356,VALID,0.728906,
2009-11-11, 00:13:04,VALID,1001.27,VALID,0,VALID,93.8657,VALID,0,VALID,24.2273,VALID,356,VALID,0.624219,
2009-11-11, 00:14:04,VALID,1001.24,VALID,0,VALID,93.9039,VALID,0,VALID,24.2486,VALID,356,VALID,0.560547,
2009-11-11, 00:15:04,VALID,1001.23,VALID,0,VALID,93.881,VALID,0,VALID,24.2291,VALID,356,VALID,0.45625,
2009-11-11, 00:16:04,VALID,1001.21,VALID,0,VALID,93.881,VALID,0,VALID,24.2291,VALID,356,VALID,0.462891,
2009-11-11, 00:17:04,VALID,1001.21,VALID,0,VALID,93.9115,VALID,0,VALID,24.2078,VALID,356,VALID,0.452344,
2009-11-11, 00:18:04,VALID,1001.21,VALID,0,VALID,93.9344,VALID,0,VALID,24.2097,VALID,356,VALID,0.310937,
2009-11-11, 00:19:04,VALID,1001.21,VALID,0,VALID,93.9649,VALID,0,VALID,24.2097,VALID,356,VALID,0.207422,
2009-11-11, 00:20:04,VALID,1001.17,VALID,0,VALID,93.9573,VALID,0,VALID,24.1902,VALID,356,VALID,0.199609,
2009-11-11, 00:21:04,VALID,1001.13,VALID,0,VALID,93.9725,VALID,0,VALID,24.1689,VALID,356,VALID,0.0523437,
2009-11-11, 00:22:04,VALID,1001.1,VALID,0,VALID,93.9649,VALID,0,VALID,24.1902,VALID,356,VALID,0.0851562,
2009-11-11, 00:23:04,VALID,1001.08,VALID,0,VALID,94.0031,VALID,0,VALID,24.1902,VALID,356,VALID,0.260547,
2009-11-11, 00:24:04,VALID,1001.02,VALID,0,VALID,94.0183,VALID,0,VALID,24.1902,VALID,356,VALID,0.260938,
2009-11-11, 00:25:04,VALID,1001.01,VALID,0,VALID,94.0107,VALID,0,VALID,24.1707,VALID,356,VALID,0.229297,
2009-11-11, 00:26:04,VALID,1000.95,VALID,0,VALID,94.0259,VALID,0,VALID,24.1707,VALID,356,VALID,0.266016,
2009-11-11, 00:27:04,VALID,1000.98,VALID,0,VALID,93.9954,VALID,0,VALID,24.1707,VALID,356,VALID,0.269141,
2009-11-11, 00:28:04,VALID,1000.95,VALID,0,VALID,94.0107,VALID,0,VALID,24.1494,VALID,356,VALID,0.126172,
2009-11-11, 00:29:04,VALID,1000.93,VALID,0,VALID,94.0259,VALID,0,VALID,24.1707,VALID,356,VALID,0.300391,
2009-11-11, 00:30:04,VALID,1000.92,VALID,0,VALID,94.0183,VALID,0,VALID,24.1494,VALID,356,VALID,0.111328,
2009-11-11, 00:31:04,VALID,1000.86,VALID,0,VALID,94.0488,VALID,0,VALID,24.1884,VALID,356,VALID,0.15,
2009-11-11, 00:32:04,VALID,1000.87,VALID,0,VALID,94.0717,VALID,0,VALID,24.231,VALID,356,VALID,0.192578,
2009-11-11, 00:33:04,VALID,1000.85,VALID,0,VALID,94.087,VALID,0,VALID,24.231,VALID,356,VALID,0.279297,
2009-11-11, 00:34:04,VALID,1000.86,VALID,0,VALID,94.0946,VALID,0,VALID,24.2291,VALID,356,VALID,0.05,
2009-11-11, 00:35:04,VALID,1000.84,VALID,0,VALID,94.0946,VALID,0,VALID,24.2078,VALID,356,VALID,0.302344,
2009-11-11, 00:36:04,VALID,1000.84,VALID,0,VALID,94.1175,VALID,0,VALID,24.2486,VALID,356,VALID,0.284766,
2009-11-11, 00:37:04,VALID,1000.81,VALID,0,VALID,94.0946,VALID,0,VALID,24.2486,VALID,356,VALID,0.35625,
2009-11-11, 00:38:04,VALID,1000.82,VALID,0,VALID,94.087,VALID,0,VALID,24.2078,VALID,356,VALID,0.350391,
2009-11-11, 00:39:04,VALID,1000.81,VALID,0,VALID,94.0794,VALID,0,VALID,24.2273,VALID,356,VALID,0.181641,
2009-11-11, 00:40:04,VALID,1000.8,VALID,0,VALID,94.0336,VALID,0,VALID,24.2486,VALID,356,VALID,0.244922,
2009-11-11, 00:41:04,VALID,1000.78,VALID,0,VALID,94.0717,VALID,0,VALID,24.2486,VALID,356,VALID,0.636328,
2009-11-11, 00:42:04,VALID,1000.8,VALID,0,VALID,94.148,VALID,0,VALID,24.3265,VALID,19,VALID,0.423047,
2009-11-11, 00:43:04,VALID,1000.8,VALID,0,VALID,94.1709,VALID,0,VALID,24.3654,VALID,19,VALID,0.229297,
2009-11-11, 00:44:04,VALID,1000.78,VALID,0,VALID,94.1404,VALID,0,VALID,24.3441,VALID,19,VALID,0.123438,
2009-11-11, 00:45:04,VALID,1000.8,VALID,0,VALID,94.1022,VALID,0,VALID,24.383,VALID,19,VALID,0.272656,
2009-11-11, 00:46:04,VALID,1000.75,VALID,0,VALID,94.0565,VALID,0,VALID,24.4043,VALID,19,VALID,0.281641,
2009-11-11, 00:47:04,VALID,1000.77,VALID,0,VALID,93.9725,VALID,0,VALID,24.383,VALID,19,VALID,0.219922,
2009-11-11, 00:48:04,VALID,1000.76,VALID,0,VALID,93.942,VALID,0,VALID,24.4238,VALID,19,VALID,0.189453,
2009-11-11, 00:49:04,VALID,1000.77,VALID,0,VALID,93.8505,VALID,0,VALID,24.4043,VALID,19,VALID,0.111328,
2009-11-11, 00:50:04,VALID,1000.76,VALID,0,VALID,93.82,VALID,0,VALID,24.4043,VALID,26,VALID,0.333984,
2009-11-11, 00:51:04,VALID,1000.75,VALID,0,VALID,93.7589,VALID,0,VALID,24.4043,VALID,39,VALID,0.571484,
2009-11-11, 00:52:04,VALID,1000.75,VALID,0,VALID,93.6674,VALID,0,VALID,24.3849,VALID,56,VALID,0.626953,
2009-11-11, 00:53:04,VALID,1000.79,VALID,0,VALID,93.675,VALID,0,VALID,24.3441,VALID,65,VALID,0.310156,
2009-11-11, 00:54:04,VALID,1000.76,VALID,0,VALID,93.6598,VALID,0,VALID,24.3654,VALID,65,VALID,0.238672,
2009-11-11, 00:55:04,VALID,1000.73,VALID,0,VALID,93.6521,VALID,0,VALID,24.3265,VALID,65,VALID,0.191016,
2009-11-11, 00:56:04,VALID,1000.75,VALID,0,VALID,93.6903,VALID,0,VALID,24.3459,VALID,65,VALID,0.246875,
2009-11-11, 00:57:04,VALID,1000.74,VALID,0,VALID,93.7132,VALID,0,VALID,24.3246,VALID,65,VALID,0.370703,
2009-11-11, 00:58:04,VALID,1000.71,VALID,0,VALID,93.7589,VALID,0,VALID,24.3459,VALID,65,VALID,0.253516,
2009-11-11, 00:59:04,VALID,1000.68,VALID,0,VALID,93.7666,VALID,0,VALID,24.3459,VALID,65,VALID,0.188672,
2009-11-11, 01:00:04,VALID,1000.67,VALID,0,VALID,93.7895,VALID,0,VALID,24.3052,VALID,65,VALID,0.122266,
2009-11-11, 01:01:04,VALID,1000.69,VALID,0,VALID,93.8276,VALID,0,VALID,24.3265,VALID,65,VALID,0.248828,
2009-11-11, 01:02:04,VALID,1000.65,VALID,0,VALID,93.8276,VALID,0,VALID,24.3265,VALID,65,VALID,0.201562,
2009-11-11, 01:03:04,VALID,1000.63,VALID,0,VALID,93.8352,VALID,0,VALID,24.3265,VALID,65,VALID,0.151953,
2009-11-11, 01:04:04,VALID,1000.62,VALID,0,VALID,93.8505,VALID,0,VALID,24.307,VALID,65,VALID,0.205859,
2009-11-11, 01:05:04,VALID,1000.61,VALID,0,VALID,93.8734,VALID,0,VALID,24.3265,VALID,65,VALID,0.25625,
2009-11-11, 01:06:04,VALID,1000.59,VALID,0,VALID,93.8963,VALID,0,VALID,24.3052,VALID,65,VALID,0.466016,
2009-11-11, 01:07:04,VALID,1000.57,VALID,0,VALID,93.9268,VALID,0,VALID,24.3441,VALID,65,VALID,0.096875,
2009-11-11, 01:08:04,VALID,1000.56,VALID,0,VALID,93.9344,VALID,0,VALID,24.3459,VALID,65,VALID,0.114844,
2009-11-11, 01:09:04,VALID,1000.54,VALID,0,VALID,93.9344,VALID,0,VALID,24.3654,VALID,65,VALID,0.0261719,
2009-11-11, 01:10:04,VALID,1000.51,VALID,0,VALID,93.9497,VALID,0,VALID,24.3849,VALID,38,VALID,0.615234,
2009-11-11, 01:11:04,VALID,1000.52,VALID,0,VALID,93.9954,VALID,0,VALID,24.4238,VALID,22,VALID,0.302734,
2009-11-11, 01:12:04,VALID,1000.5,VALID,0,VALID,94.0412,VALID,0,VALID,24.4822,VALID,22,VALID,0.550781,
2009-11-11, 01:13:04,VALID,1000.48,VALID,0,VALID,94.0259,VALID,0,VALID,24.5601,VALID,23,VALID,0.748438,
2009-11-11, 01:14:04,VALID,1000.45,VALID,0,VALID,94.0107,VALID,0,VALID,24.6769,VALID,33,VALID,1.14375,
2009-11-11, 01:15:04,VALID,1000.42,VALID,0,VALID,93.8123,VALID,0,VALID,24.9106,VALID,29,VALID,0.759766,
2009-11-11, 01:16:04,VALID,1000.43,VALID,0,VALID,93.1334,VALID,0,VALID,25.0255,VALID,22,VALID,1.19727,
2009-11-11, 01:17:04,VALID,1000.43,VALID,0,VALID,91.8212,VALID,0,VALID,25.2027,VALID,28,VALID,1.20703,
2009-11-11, 01:18:04,VALID,1000.41,VALID,0,VALID,90.9286,VALID,0,VALID,25.3176,VALID,31,VALID,1.05391,
2009-11-11, 01:19:04,VALID,1000.38,VALID,0,VALID,89.8072,VALID,0,VALID,25.4928,VALID,24,VALID,1.10039,
2009-11-11, 01:20:04,VALID,1000.37,VALID,0,VALID,88.0525,VALID,0,VALID,25.6311,VALID,21,VALID,1.35391,
2009-11-11, 01:21:04,VALID,1000.37,VALID,0,VALID,86.954,VALID,0,VALID,25.8259,VALID,18,VALID,1.24883,
2009-11-11, 01:22:04,VALID,1000.35,VALID,0,VALID,86.4047,VALID,0,VALID,25.8629,VALID,2,VALID,0.796094,
2009-11-11, 01:23:04,VALID,1000.32,VALID,0,VALID,86.6793,VALID,0,VALID,25.8434,VALID,2,VALID,0.348047,
2009-11-11, 01:24:04,VALID,1000.32,VALID,0,VALID,86.8853,VALID,0,VALID,25.748,VALID,26,VALID,0.810547,
2009-11-11, 01:25:04,VALID,1000.27,VALID,0,VALID,86.4886,VALID,0,VALID,25.709,VALID,39,VALID,1.62695,
2009-11-11, 01:26:04,VALID,1000.28,VALID,0,VALID,86.2216,VALID,0,VALID,25.8064,VALID,35,VALID,0.755469,
2009-11-11, 01:27:04,VALID,1000.27,VALID,0,VALID,85.8249,VALID,0,VALID,25.8453,VALID,41,VALID,0.864062,
2009-11-11, 01:28:04,VALID,1000.26,VALID,0,VALID,85.68,VALID,0,VALID,25.9038,VALID,43,VALID,0.819141,
2009-11-11, 01:29:04,VALID,1000.27,VALID,0,VALID,85.6037,VALID,0,VALID,25.9018,VALID,18,VALID,0.748047,
2009-11-11, 01:30:04,VALID,1000.25,VALID,0,VALID,85.4358,VALID,0,VALID,25.9427,VALID,30,VALID,0.998047,
2009-11-11, 01:31:04,VALID,1000.27,VALID,0,VALID,85.3977,VALID,0,VALID,25.9427,VALID,20,VALID,0.705469,
2009-11-11, 01:32:04,VALID,1000.29,VALID,0,VALID,85.3367,VALID,0,VALID,25.9622,VALID,44,VALID,0.807031,
2009-11-11, 01:33:04,VALID,1000.27,VALID,0,VALID,85.4969,VALID,0,VALID,25.9622,VALID,11,VALID,0.809766,
2009-11-11, 01:34:04,VALID,1000.25,VALID,0,VALID,85.4206,VALID,0,VALID,25.9622,VALID,25,VALID,1.30781,
2009-11-11, 01:35:04,VALID,1000.23,VALID,0,VALID,85.1612,VALID,0,VALID,25.9642,VALID,20,VALID,1.43867,
2009-11-11, 01:36:04,VALID,1000.24,VALID,0,VALID,85.2527,VALID,0,VALID,25.9622,VALID,31,VALID,0.788281,
2009-11-11, 01:37:04,VALID,1000.24,VALID,0,VALID,85.4358,VALID,0,VALID,25.9427,VALID,45,VALID,0.576953,
2009-11-11, 01:38:04,VALID,1000.24,VALID,0,VALID,85.6952,VALID,0,VALID,25.9252,VALID,9,VALID,0.359766,
2009-11-11, 01:39:04,VALID,1000.21,VALID,0,VALID,85.7868,VALID,0,VALID,25.8648,VALID,21,VALID,1.23008,
2009-11-11, 01:40:04,VALID,1000.22,VALID,0,VALID,85.6952,VALID,0,VALID,25.8648,VALID,29,VALID,1.73789,
2009-11-11, 01:41:04,VALID,1000.21,VALID,0,VALID,85.7181,VALID,0,VALID,25.8629,VALID,48,VALID,0.490625,
2009-11-11, 01:42:04,VALID,1000.25,VALID,0,VALID,85.6418,VALID,0,VALID,25.8863,VALID,28,VALID,0.889844,
2009-11-11, 01:43:04,VALID,1000.29,VALID,0,VALID,85.5655,VALID,0,VALID,25.9038,VALID,30,VALID,0.410937,
2009-11-11, 01:44:04,VALID,1000.29,VALID,0,VALID,85.6418,VALID,0,VALID,25.8434,VALID,65,VALID,0.747266,
2009-11-11, 01:45:04,VALID,1000.29,VALID,0,VALID,85.9165,VALID,0,VALID,25.8064,VALID,44,VALID,0.635938,
2009-11-11, 01:46:04,VALID,1000.32,VALID,0,VALID,86.2598,VALID,0,VALID,25.748,VALID,43,VALID,0.577344,
2009-11-11, 01:47:04,VALID,1000.28,VALID,0,VALID,86.4581,VALID,0,VALID,25.6895,VALID,43,VALID,0.187109,
2009-11-11, 01:48:04,VALID,1000.29,VALID,0,VALID,86.6336,VALID,0,VALID,25.6311,VALID,43,VALID,0.192969,
2009-11-11, 01:49:04,VALID,1000.3,VALID,0,VALID,86.7022,VALID,0,VALID,25.6116,VALID,33,VALID,0.348828,
2009-11-11, 01:50:04,VALID,1000.29,VALID,0,VALID,86.5115,VALID,0,VALID,25.6136,VALID,75,VALID,0.835156,
2009-11-11, 01:51:04,VALID,1000.32,VALID,0,VALID,86.2826,VALID,0,VALID,25.6311,VALID,74,VALID,0.394922,
2009-11-11, 01:52:04,VALID,1000.35,VALID,0,VALID,86.3589,VALID,0,VALID,25.6311,VALID,44,VALID,0.475391,
2009-11-11, 01:53:04,VALID,1000.35,VALID,0,VALID,85.9393,VALID,0,VALID,25.6311,VALID,45,VALID,0.581641,
2009-11-11, 01:54:04,VALID,1000.37,VALID,0,VALID,85.9241,VALID,0,VALID,25.6292,VALID,48,VALID,0.387109,
2009-11-11, 01:55:04,VALID,1000.39,VALID,0,VALID,86.0233,VALID,0,VALID,25.6311,VALID,52,VALID,0.180078,
2009-11-11, 01:56:04,VALID,1000.37,VALID,0,VALID,86.2216,VALID,0,VALID,25.5902,VALID,64,VALID,0.487891,
2009-11-11, 01:57:04,VALID,1000.36,VALID,0,VALID,86.7251,VALID,0,VALID,25.5551,VALID,42,VALID,0.203125,
2009-11-11, 01:58:04,VALID,1000.39,VALID,0,VALID,87.1294,VALID,0,VALID,25.4344,VALID,42,VALID,0.66875,
2009-11-11, 01:59:04,VALID,1000.37,VALID,0,VALID,87.7398,VALID,0,VALID,25.3176,VALID,42,VALID,0.385938,
2009-11-11, 02:00:04,VALID,1000.38,VALID,0,VALID,88.3043,VALID,0,VALID,25.2397,VALID,41,VALID,0.576953,
2009-11-11, 02:01:04,VALID,1000.37,VALID,0,VALID,88.6094,VALID,0,VALID,25.1618,VALID,14,VALID,0.382422,
2009-11-11, 02:02:04,VALID,1000.38,VALID,0,VALID,88.9222,VALID,0.100563,VALID,25.1442,VALID,16,VALID,0.522656,
2009-11-11, 02:03:04,VALID,1000.39,VALID,0,VALID,88.4492,VALID,0,VALID,25.0839,VALID,356,VALID,1.34375,
2009-11-11, 02:04:04,VALID,1000.37,VALID,0,VALID,88.1365,VALID,0,VALID,25.1423,VALID,6,VALID,0.505859,
2009-11-11, 02:05:04,VALID,1000.37,VALID,0,VALID,87.5567,VALID,0,VALID,25.2027,VALID,354,VALID,0.864844,
2009-11-11, 02:06:04,VALID,1000.4,VALID,0,VALID,87.0303,VALID,0,VALID,25.2786,VALID,357,VALID,0.799609,
2009-11-11, 02:07:04,VALID,1000.39,VALID,0,VALID,86.748,VALID,0.100563,VALID,25.376,VALID,22,VALID,0.562891,
2009-11-11, 02:08:04,VALID,1000.39,VALID,0,VALID,86.6031,VALID,0,VALID,25.3955,VALID,22,VALID,0.493359,
2009-11-11, 02:09:04,VALID,1000.4,VALID,0,VALID,86.7556,VALID,0,VALID,25.4149,VALID,350,VALID,0.916016,
2009-11-11, 02:10:04,VALID,1000.38,VALID,0,VALID,86.9616,VALID,0.100563,VALID,25.4539,VALID,3,VALID,0.808594,
2009-11-11, 02:11:04,VALID,1000.41,VALID,0,VALID,87.0837,VALID,0,VALID,25.4539,VALID,360,VALID,0.413281,
2009-11-11, 02:12:04,VALID,1000.38,VALID,0,VALID,86.954,VALID,0,VALID,25.4344,VALID,37,VALID,0.8625,
2009-11-11, 02:13:04,VALID,1000.35,VALID,0,VALID,86.7175,VALID,0,VALID,25.413,VALID,30,VALID,1.21992,
2009-11-11, 02:14:04,VALID,1000.36,VALID,0,VALID,86.7404,VALID,0,VALID,25.4734,VALID,9,VALID,0.792578,
2009-11-11, 02:15:04,VALID,1000.34,VALID,0,VALID,86.8014,VALID,0,VALID,25.4928,VALID,360,VALID,0.634375,
2009-11-11, 02:16:04,VALID,1000.34,VALID,0,VALID,86.809,VALID,0,VALID,25.4734,VALID,351,VALID,0.710938,
2009-11-11, 02:17:04,VALID,1000.33,VALID,0,VALID,87.0532,VALID,0,VALID,25.4539,VALID,2,VALID,0.813672,
2009-11-11, 02:18:04,VALID,1000.32,VALID,0,VALID,87.4041,VALID,0,VALID,25.4948,VALID,349,VALID,0.80625,
2009-11-11, 02:19:04,VALID,1000.3,VALID,0,VALID,87.6177,VALID,0,VALID,25.4558,VALID,351,VALID,0.701172,
2009-11-11, 02:20:04,VALID,1000.31,VALID,0,VALID,87.7016,VALID,0,VALID,25.4539,VALID,354,VALID,0.546484,
2009-11-11, 02:21:04,VALID,1000.32,VALID,0,VALID,87.7626,VALID,0,VALID,25.4539,VALID,352,VALID,0.583984,
2009-11-11, 02:22:04,VALID,1000.3,VALID,0,VALID,87.8389,VALID,0.100563,VALID,25.4344,VALID,351,VALID,0.700781,
2009-11-11, 02:23:04,VALID,1000.29,VALID,0,VALID,87.9381,VALID,0,VALID,25.4344,VALID,338,VALID,0.742578,
2009-11-11, 02:24:04,VALID,1000.31,VALID,0,VALID,88.0449,VALID,0,VALID,25.4344,VALID,356,VALID,0.690625,
2009-11-11, 02:25:04,VALID,1000.31,VALID,0,VALID,88.167,VALID,0,VALID,25.3955,VALID,351,VALID,0.572656,
2009-11-11, 02:26:04,VALID,1000.32,VALID,0,VALID,88.2967,VALID,0,VALID,25.3565,VALID,335,VALID,0.470703,
2009-11-11, 02:27:04,VALID,1000.31,VALID,0,VALID,88.3806,VALID,0,VALID,25.337,VALID,336,VALID,0.312891,
2009-11-11, 02:28:04,VALID,1000.29,VALID,0,VALID,88.3653,VALID,0,VALID,25.3176,VALID,335,VALID,0.510938,
2009-11-11, 02:29:04,VALID,1000.3,VALID,0,VALID,88.3348,VALID,0,VALID,25.2981,VALID,338,VALID,0.658594,
2009-11-11, 02:30:04,VALID,1000.26,VALID,0,VALID,88.1975,VALID,0,VALID,25.2786,VALID,339,VALID,0.830078,
2009-11-11, 02:31:04,VALID,1000.28,VALID,0,VALID,88.1593,VALID,0.100563,VALID,25.2786,VALID,343,VALID,0.787891,
2009-11-11, 02:32:04,VALID,1000.28,VALID,0,VALID,88.0373,VALID,0,VALID,25.2786,VALID,340,VALID,0.764453,
2009-11-11, 02:33:04,VALID,1000.29,VALID,0,VALID,87.8542,VALID,0,VALID,25.3,VALID,350,VALID,0.647266,
2009-11-11, 02:34:04,VALID,1000.28,VALID,0,VALID,87.7016,VALID,0.100563,VALID,25.2981,VALID,350,VALID,0.750781,
2009-11-11, 02:35:04,VALID,1000.26,VALID,0,VALID,86.8014,VALID,0,VALID,25.3176,VALID,4,VALID,1.21641,
2009-11-11, 02:36:04,VALID,1000.27,VALID,0,VALID,86.3818,VALID,0,VALID,25.3955,VALID,344,VALID,0.896094,
2009-11-11, 02:37:04,VALID,1000.27,VALID,0,VALID,85.9317,VALID,0.100563,VALID,25.4344,VALID,352,VALID,0.752734,
2009-11-11, 02:38:04,VALID,1000.26,VALID,0,VALID,85.7257,VALID,0.100563,VALID,25.4928,VALID,350,VALID,0.849609,
2009-11-11, 02:39:04,VALID,1000.23,VALID,0,VALID,85.4892,VALID,0.100563,VALID,25.5318,VALID,14,VALID,1.08945,
2009-11-11, 02:40:04,VALID,1000.23,VALID,0,VALID,84.9934,VALID,0.100563,VALID,25.6097,VALID,26,VALID,1.38164,
2009-11-11, 02:41:04,VALID,1000.25,VALID,0,VALID,84.7569,VALID,0,VALID,25.6681,VALID,5,VALID,0.925391,
2009-11-11, 02:42:04,VALID,1000.28,VALID,0,VALID,84.6043,VALID,0,VALID,25.7071,VALID,349,VALID,0.641016,
2009-11-11, 02:43:04,VALID,1000.25,VALID,0,VALID,84.1847,VALID,0,VALID,25.7655,VALID,4,VALID,0.900391,
2009-11-11, 02:44:04,VALID,1000.26,VALID,0,VALID,84.2228,VALID,0.100563,VALID,25.8044,VALID,351,VALID,0.900781,
2009-11-11, 02:45:04,VALID,1000.23,VALID,0,VALID,84.1694,VALID,0,VALID,25.8064,VALID,349,VALID,0.782422,
2009-11-11, 02:46:04,VALID,1000.23,VALID,0,VALID,84.3296,VALID,0,VALID,25.7869,VALID,350,VALID,0.562109,
2009-11-11, 02:47:04,VALID,1000.25,VALID,0,VALID,84.4517,VALID,0,VALID,25.785,VALID,339,VALID,0.616016,
2009-11-11, 02:48:04,VALID,1000.27,VALID,0,VALID,84.4517,VALID,0,VALID,25.748,VALID,346,VALID,0.784766,
2009-11-11, 02:49:04,VALID,1000.27,VALID,0,VALID,84.2991,VALID,0,VALID,25.7265,VALID,4,VALID,1.04492,
2009-11-11, 02:50:04,VALID,1000.29,VALID,0,VALID,84.467,VALID,0,VALID,25.7285,VALID,350,VALID,0.775781,
2009-11-11, 02:51:04,VALID,1000.28,VALID,0,VALID,84.6729,VALID,0.100563,VALID,25.6876,VALID,360,VALID,0.400781,
2009-11-11, 02:52:04,VALID,1000.29,VALID,0,VALID,84.7797,VALID,0.100563,VALID,25.709,VALID,359,VALID,0.533203,
2009-11-11, 02:53:04,VALID,1000.28,VALID,0,VALID,84.94,VALID,0,VALID,25.67,VALID,344,VALID,0.514453,
2009-11-11, 02:54:04,VALID,1000.27,VALID,0,VALID,84.9628,VALID,0,VALID,25.6097,VALID,343,VALID,0.596094,
2009-11-11, 02:55:04,VALID,1000.27,VALID,0,VALID,85.1078,VALID,0.100563,VALID,25.5902,VALID,350,VALID,0.564453,
2009-11-11, 02:56:04,VALID,1000.25,VALID,0,VALID,85.2756,VALID,0,VALID,25.5902,VALID,345,VALID,0.412891,
2009-11-11, 02:57:04,VALID,1000.26,VALID,0,VALID,85.3061,VALID,0,VALID,25.5513,VALID,344,VALID,0.466406,
2009-11-11, 02:58:04,VALID,1000.27,VALID,0,VALID,85.4663,VALID,0,VALID,25.5318,VALID,344,VALID,0.703906,
2009-11-11, 02:59:04,VALID,1000.24,VALID,0,VALID,85.5274,VALID,0,VALID,25.5123,VALID,341,VALID,0.418359,
2009-11-11, 03:00:04,VALID,1000.24,VALID,0,VALID,85.5579,VALID,0,VALID,25.4734,VALID,350,VALID,0.854297,
2009-11-11, 03:01:04,VALID,1000.24,VALID,0,VALID,85.7639,VALID,0,VALID,25.4948,VALID,354,VALID,0.448828,
2009-11-11, 03:02:04,VALID,1000.2,VALID,0,VALID,85.8478,VALID,0,VALID,25.4753,VALID,348,VALID,0.611328,
2009-11-11, 03:03:04,VALID,1000.17,VALID,0,VALID,86.0004,VALID,0.100563,VALID,25.4344,VALID,348,VALID,0.0753906,
2009-11-11, 03:04:04,VALID,1000.17,VALID,0,VALID,86.0385,VALID,0,VALID,25.4363,VALID,344,VALID,0.607422,
2009-11-11, 03:05:04,VALID,1000.18,VALID,0,VALID,86.1529,VALID,0.100563,VALID,25.4169,VALID,345,VALID,0.551953,
2009-11-11, 03:06:04,VALID,1000.2,VALID,0,VALID,86.3055,VALID,0.100563,VALID,25.376,VALID,306,VALID,0.272656,
2009-11-11, 03:07:04,VALID,1000.22,VALID,0,VALID,86.4352,VALID,0,VALID,25.3565,VALID,328,VALID,0.426562,
2009-11-11, 03:08:04,VALID,1000.23,VALID,0,VALID,86.481,VALID,0,VALID,25.3176,VALID,334,VALID,0.486719,
2009-11-11, 03:09:04,VALID,1000.23,VALID,0,VALID,86.5649,VALID,0.100563,VALID,25.2981,VALID,339,VALID,0.392969,
2009-11-11, 03:10:04,VALID,1000.23,VALID,0,VALID,86.6031,VALID,0,VALID,25.2786,VALID,353,VALID,0.631641,
2009-11-11, 03:11:04,VALID,1000.24,VALID,0,VALID,86.5725,VALID,0.100563,VALID,25.2611,VALID,360,VALID,0.326953,
2009-11-11, 03:12:04,VALID,1000.26,VALID,0,VALID,86.5115,VALID,0,VALID,25.2397,VALID,356,VALID,0.787891,
2009-11-11, 03:13:04,VALID,1000.26,VALID,0,VALID,86.5649,VALID,0,VALID,25.2397,VALID,12,VALID,0.872266,
2009-11-11, 03:14:04,VALID,1000.27,VALID,0,VALID,86.481,VALID,0.100563,VALID,25.2981,VALID,8,VALID,0.732422,
2009-11-11, 03:15:04,VALID,1000.26,VALID,0,VALID,86.2979,VALID,0,VALID,25.3565,VALID,346,VALID,0.746875,
2009-11-11, 03:16:04,VALID,1000.28,VALID,0,VALID,86.1453,VALID,0,VALID,25.3935,VALID,23,VALID,0.409375,
2009-11-11, 03:17:04,VALID,1000.32,VALID,0,VALID,86.0995,VALID,0,VALID,25.4558,VALID,22,VALID,0.339453,
2009-11-11, 03:18:04,VALID,1000.33,VALID,0,VALID,86.1606,VALID,0,VALID,25.4344,VALID,22,VALID,0.304297,
2009-11-11, 03:19:04,VALID,1000.34,VALID,0,VALID,86.275,VALID,0,VALID,25.4344,VALID,22,VALID,0.253906,
2009-11-11, 03:20:04,VALID,1000.35,VALID,0,VALID,86.542,VALID,0,VALID,25.4344,VALID,22,VALID,0.0890625,
2009-11-11, 03:21:04,VALID,1000.34,VALID,0,VALID,86.5878,VALID,0,VALID,25.376,VALID,22,VALID,0.0445312,
2009-11-11, 03:22:04,VALID,1000.31,VALID,0,VALID,86.8014,VALID,0,VALID,25.3565,VALID,22,VALID,0,
2009-11-11, 03:23:04,VALID,1000.29,VALID,0,VALID,87.0226,VALID,0.100563,VALID,25.337,VALID,22,VALID,0.138281,
2009-11-11, 03:24:04,VALID,1000.31,VALID,0,VALID,87.1752,VALID,0,VALID,25.2786,VALID,22,VALID,0.242969,
2009-11-11, 03:25:04,VALID,1000.28,VALID,0,VALID,87.282,VALID,0,VALID,25.2806,VALID,22,VALID,0.00546875,
2009-11-11, 03:26:04,VALID,1000.31,VALID,0,VALID,87.3888,VALID,0,VALID,25.2416,VALID,22,VALID,0.167969,
2009-11-11, 03:27:04,VALID,1000.33,VALID,0,VALID,87.6329,VALID,0.100563,VALID,25.2221,VALID,22,VALID,0,
2009-11-11, 03:28:04,VALID,1000.35,VALID,0,VALID,87.7855,VALID,0,VALID,25.1832,VALID,22,VALID,0,
2009-11-11, 03:29:04,VALID,1000.35,VALID,0,VALID,88.0602,VALID,0,VALID,25.1229,VALID,22,VALID,0,
2009-11-11, 03:30:04,VALID,1000.35,VALID,0,VALID,88.3424,VALID,0.100563,VALID,25.0839,VALID,22,VALID,0.138672,
2009-11-11, 03:31:04,VALID,1000.35,VALID,0,VALID,88.556,VALID,0.100563,VALID,25.045,VALID,22,VALID,0.308984,
2009-11-11, 03:32:04,VALID,1000.37,VALID,0,VALID,88.8078,VALID,0.100563,VALID,24.9671,VALID,22,VALID,0,
2009-11-11, 03:33:04,VALID,1000.37,VALID,0,VALID,89.0748,VALID,0,VALID,24.9087,VALID,22,VALID,0,
2009-11-11, 03:34:04,VALID,1000.39,VALID,0,VALID,89.2884,VALID,0,VALID,24.8911,VALID,22,VALID,0,
2009-11-11, 03:35:04,VALID,1000.36,VALID,0,VALID,89.5249,VALID,0.100563,VALID,24.8327,VALID,22,VALID,0.009375,
2009-11-11, 03:36:04,VALID,1000.34,VALID,0,VALID,89.8301,VALID,0,VALID,24.7937,VALID,22,VALID,0.158984,
2009-11-11, 03:37:04,VALID,1000.33,VALID,0,VALID,90.0742,VALID,0,VALID,24.7548,VALID,22,VALID,0.282422,
2009-11-11, 03:38:04,VALID,1000.34,VALID,0,VALID,90.3793,VALID,0.100563,VALID,24.6945,VALID,22,VALID,0.229687,
2009-11-11, 03:39:04,VALID,1000.35,VALID,0,VALID,90.5014,VALID,0,VALID,24.675,VALID,22,VALID,0.181641,
2009-11-11, 03:40:04,VALID,1000.35,VALID,0,VALID,90.6921,VALID,0.100563,VALID,24.6574,VALID,22,VALID,0.429297,
2009-11-11, 03:41:04,VALID,1000.3,VALID,0,VALID,91.0278,VALID,0,VALID,24.6166,VALID,22,VALID,0.304297,
2009-11-11, 03:42:04,VALID,1000.33,VALID,0,VALID,91.1804,VALID,0,VALID,24.6185,VALID,22,VALID,0.408203,
2009-11-11, 03:43:04,VALID,1000.28,VALID,0,VALID,91.1575,VALID,0,VALID,24.599,VALID,22,VALID,0.380859,
2009-11-11, 03:44:04,VALID,1000.27,VALID,0,VALID,91.2185,VALID,0,VALID,24.5388,VALID,19,VALID,0.304297,